Wind_Speed
19 21 22 23 23 25 27 31 35 35 35 36 38 41 44 44 44 45 44 49 48 44 44 42 42 46 44 46 52 52 50 49 46 43 42 40 40 41 46 41 41 40 40
27 27 30 32 34 32 30 32 35 38 36 35 35 37 40 43 44 45 48 41 47 48 40 46 39 46 52 51 52 51 51 49 47 45 43 41 41 45 46 43 41 40 39
38 36 37 39 40 40 40 39 38 40 40 37 36 36 37 39 41 43 38 52 50 34 47 41 46 45 50 49 49 50 50 48 46 44 43 41 41 48 44 40 40 38 37
48 48 47 48 47 51 49 46 43 41 41 41 38 36 36 37 39 40 43 46 38 50 47 44 41 43 49 50 46 48 49 47 45 43 42 39 41 47 40 38 37 36 38
53 53 51 52 54 53 53 52 47 44 41 41 42 40 38 37 38 38 41 42 39 49 50 49 47 47 50 48 46 47 48 45 45 45 43 41 47 39 36 36 35 36 37
50 52 54 59 60 61 60 57 51 46 44 41 41 42 40 38 38 39 41 38 43 46 46 50 47 54 53 47 46 46 45 47 47 41 42 44 38 34 34 34 36 38 40
49 49 50 51 52 53 53 50 46 42 43 42 40 41 42 41 39 38 41 42 40 43 49 49 51 58 52 46 43 43 45 42 42 39 40 36 32 31 32 34 39 41 43
42 41 41 41 42 42 42 41 40 40 41 42 42 42 43 42 40 40 39 41 42 45 51 52 58 56 48 42 43 46 43 41 34 36 36 32 29 31 33 36 38 41 45
36 38 38 37 38 39 40 39 39 39 40 41 43 43 43 43 42 42 41 41 42 48 51 52 54 51 48 45 46 44 39 29 33 36 32 27 31 32 33 36 40 44 45
35 35 36 37 37 37 37 37 38 39 40 41 42 42 42 42 43 43 41 42 42 46 52 50 50 51 47 45 45 37 31 29 35 33 29 29 30 33 36 39 41 42 46
38 38 35 34 34 36 37 37 37 37 36 37 39 40 41 41 42 42 43 42 41 43 45 45 43 45 47 44 35 30 29 32 33 32 29 30 33 38 39 41 41 43 46
38 38 37 37 36 36 36 36 36 36 35 35 35 37 38 40 41 42 41 41 40 40 37 35 35 38 36 32 31 27 28 31 33 28 27 32 36 36 39 40 42 44 48
40 37 36 37 38 38 38 38 38 39 39 39 38 37 36 36 38 39 40 39 38 34 29 28 30 29 28 31 25 21 26 30 29 30 34 36 38 39 40 44 47 49 48
37 37 37 36 36 36 36 36 36 36 36 35 34 35 34 31 28 28 28 26 23 19 14 14 16 19 20 19 19 24 26 26 29 33 35 38 38 40 44 46 48 48 48
38 38 37 34 32 34 35 33 32 32 31 31 30 29 25 23 21 19 15 10 7 6 6 9 11 12 13 17 21 23 25 28 31 33 35 38 42 45 46 47 47 49 49
36 35 34 33 33 35 34 31 27 26 17 11 10 10 9 7 4 3 3 4 4 7 9 11 12 15 17 20 23 25 27 29 31 35 39 42 45 46 47 47 48 48 48
32 31 30 31 29 24 18 15 11 8 7 4 2 0 3 3 4 4 6 7 9 10 10 12 15 17 20 23 25 28 31 34 37 40 43 45 47 48 48 48 47 46 45
28 28 28 28 21 15 14 10 8 7 5 4 3 3 5 6 8 10 11 12 12 14 15 17 19 22 24 26 29 32 35 39 42 44 46 47 47 48 48 47 45 43 41
26 20 20 17 15 15 12 9 6 5 5 5 6 7 8 12 14 14 14 15 15 17 19 21 22 24 26 29 33 37 40 44 46 48 49 48 47 47 46 44 43 41 40
26 22 19 17 13 10 9 6 5 5 7 10 13 15 14 14 15 15 16 17 18 19 20 22 26 29 32 35 39 42 45 48 50 50 50 49 47 45 44 42 41 40 38
15 17 16 13 8 5 4 5 7 11 14 15 16 16 15 16 16 17 18 19 21 24 27 30 33 37 40 43 45 48 51 52 52 51 50 48 46 43 42 41 40 39 38
17 13 9 6 5 7 9 12 14 15 17 17 17 17 17 18 20 21 23 26 30 33 36 39 41 44 46 48 51 52 53 53 52 51 49 46 44 42 41 40 39 37 35
13 11 7 7 9 13 15 17 17 16 17 18 20 21 22 24 26 29 32 35 37 40 43 45 48 49 51 52 53 53 52 51 50 48 47 45 43 41 39 38 36 34 34
9 8 10 13 16 17 17 16 18 19 21 22 24 26 29 32 34 36 39 42 45 47 50 52 53 54 54 54 53 51 49 48 46 45 44 42 39 38 37 35 34 33 31
12 15 16 17 17 18 19 21 22 23 25 28 30 33 35 38 41 44 47 50 52 54 55 55 55 55 54 52 50 48 46 45 43 41 40 38 37 36 35 34 34 32 30
17 18 18 19 20 22 23 25 27 29 32 35 38 41 43 46 49 52 54 55 56 56 56 55 54 52 50 48 47 46 44 43 40 39 37 36 35 35 35 34 33 31 30
Wind_Direction
252 266 276 288 296 299 301 299 297 292 287 280 274 269 267 263 259 258 258 254 259 255 266 264 261 260 253 261 259 258 258 261 264 267 269 268 272 287 301 296 290 288 289
274 283 284 285 289 295 300 305 302 297 294 287 280 273 269 265 261 261 257 246 261 271 253 267 264 260 256 255 255 257 258 260 263 267 269 269 277 287 298 293 287 287 289
283 288 291 291 290 289 291 295 302 298 293 289 285 280 273 268 264 263 260 245 266 255 265 252 265 258 259 259 259 257 258 260 262 264 265 270 279 293 294 289 284 288 291
281 282 283 287 291 291 292 295 297 295 289 287 285 281 275 270 264 262 259 258 258 250 266 253 265 262 261 253 253 256 256 257 258 260 262 271 281 295 288 285 285 288 294
278 277 280 282 286 288 290 292 293 291 286 282 281 280 277 273 269 267 264 264 261 250 268 256 266 251 250 250 249 252 253 254 257 258 265 274 290 286 282 281 284 289 292
279 281 281 278 279 284 286 288 286 282 280 279 278 276 276 275 271 265 264 257 254 257 262 258 263 258 249 245 246 248 250 252 253 259 271 287 284 278 277 280 287 294 294
281 281 280 279 279 280 282 283 279 275 275 275 274 273 271 272 271 268 264 261 265 260 259 258 263 258 250 243 243 245 248 253 258 273 284 281 275 273 278 286 290 292 295
280 281 279 277 279 281 282 282 280 280 276 272 271 271 269 270 270 270 265 263 261 253 260 256 260 256 248 243 245 245 248 253 275 281 280 277 268 273 280 286 289 294 298
279 280 281 282 281 281 281 281 280 279 275 270 269 268 266 266 267 268 265 264 260 253 259 264 261 253 244 240 244 245 255 269 278 279 279 261 271 279 289 293 298 296 297
285 283 282 282 281 279 278 277 279 279 279 276 272 269 267 265 266 267 266 267 264 257 260 268 266 259 247 244 245 254 261 264 277 277 269 266 275 289 292 296 299 299 302
292 290 286 282 278 277 277 278 277 277 278 278 275 273 271 268 269 266 266 266 266 264 266 273 272 264 254 251 251 257 257 266 275 275 268 277 286 288 291 298 298 300 303
294 285 285 283 280 279 278 277 276 276 275 273 270 269 269 269 268 266 264 262 267 269 270 272 263 256 250 248 255 253 262 270 273 274 274 279 285 288 294 295 296 299 301
292 291 290 287 285 284 282 279 276 274 273 274 272 269 267 265 266 264 264 264 267 268 264 256 249 245 241 247 255 266 265 266 274 277 283 286 292 294 296 299 300 300 302
288 287 284 284 285 285 285 285 284 282 277 273 270 269 267 265 264 263 263 260 253 248 251 258 252 248 253 260 267 263 263 272 280 282 287 292 294 297 297 298 299 302 304
292 293 291 291 290 287 284 281 280 279 275 273 273 271 263 257 252 247 239 229 220 213 228 239 245 250 258 262 262 268 273 278 282 287 291 295 294 294 296 298 299 300 303
285 285 287 288 289 288 285 278 273 268 257 233 210 208 203 201 206 227 272 281 263 260 261 265 266 268 265 264 270 278 284 289 291 291 290 290 292 293 295 296 297 299 302
282 281 280 276 266 251 236 232 227 229 205 196 210 18 315 312 301 268 258 259 264 268 269 266 270 276 283 286 288 290 290 289 287 287 289 290 292 292 293 293 296 299 300
260 245 237 230 229 227 229 229 220 213 216 221 203 222 249 265 272 272 265 261 264 269 273 275 279 283 284 285 287 288 288 288 289 290 291 291 290 291 292 295 296 297 296
224 218 221 215 204 210 235 229 206 206 231 259 270 266 266 263 262 262 266 271 276 279 282 284 285 286 288 289 289 289 289 289 290 290 290 291 291 292 292 293 294 293 293
218 211 211 224 224 194 189 198 222 248 263 268 268 266 264 264 267 271 275 279 280 280 281 282 283 284 286 287 288 288 288 288 289 289 290 290 290 290 291 290 290 290 291
230 228 211 203 197 197 220 257 265 265 266 268 271 272 271 271 273 274 275 276 278 279 280 282 284 286 287 287 288 288 288 289 290 291 291 291 291 290 290 290 289 289 288
233 215 201 209 240 265 269 271 275 276 277 278 277 277 279 279 278 278 278 280 282 285 286 287 287 288 288 289 289 290 291 292 292 292 292 291 290 289 288 287 285 284 283
212 209 224 252 265 268 271 274 276 277 278 280 280 281 281 281 283 285 287 288 289 289 289 289 290 290 291 291 291 291 291 291 291 290 290 288 287 285 284 283 282 281 283
233 259 270 266 265 269 270 272 275 277 279 281 284 286 287 288 289 290 290 291 291 292 292 292 292 291 291 291 291 291 291 290 289 289 288 287 286 285 283 280 278 279 280
267 264 266 271 272 272 274 276 277 280 284 286 287 289 290 291 292 292 292 292 291 291 290 290 290 290 290 290 290 289 288 287 287 287 286 285 284 282 280 279 277 277 278
265 267 267 268 271 275 278 280 283 285 288 290 291 293 293 294 293 293 292 291 290 290 290 289 289 288 288 287 287 286 286 287 287 286 285 283 281 280 277 275 275 276 277
Height
3088 3088 3089 3089 3088 3088 3087 3085 3083 3081 3079 3077 3076 3075 3075 3076 3076 3077 3077 3081 3081 3083 3081 3082 3084 3085 3084 3085 3085 3086 3087 3087 3087 3088 3088 3088 3085 3083 3083 3081 3078 3076 3073
3081 3081 3081 3081 3081 3080 3079 3077 3075 3073 3072 3068 3066 3065 3064 3065 3066 3065 3069 3070 3070 3071 3072 3073 3072 3074 3074 3075 3075 3076 3078 3078 3078 3078 3077 3077 3075 3074 3073 3070 3068 3065 3063
3073 3073 3072 3071 3070 3070 3070 3069 3067 3064 3061 3060 3057 3055 3054 3055 3056 3057 3057 3060 3061 3060 3062 3062 3063 3065 3064 3064 3064 3066 3068 3068 3069 3070 3069 3067 3067 3066 3063 3061 3058 3055 3053
3064 3063 3063 3062 3060 3059 3057 3056 3055 3054 3051 3049 3048 3046 3045 3044 3046 3046 3049 3050 3049 3051 3052 3052 3052 3053 3053 3051 3052 3056 3057 3058 3059 3059 3058 3058 3058 3056 3053 3051 3049 3045 3043
3052 3051 3052 3051 3048 3048 3047 3044 3044 3042 3041 3039 3037 3036 3034 3034 3035 3035 3037 3038 3038 3040 3041 3041 3040 3039 3038 3038 3041 3044 3045 3046 3048 3047 3049 3049 3048 3043 3042 3041 3039 3037 3034
3041 3041 3040 3039 3037 3035 3033 3032 3031 3031 3029 3027 3027 3026 3025 3024 3024 3026 3026 3026 3029 3030 3029 3029 3028 3026 3024 3026 3030 3033 3035 3035 3035 3036 3038 3039 3036 3033 3032 3031 3029 3027 3023
3029 3028 3028 3026 3024 3023 3020 3018 3017 3017 3016 3016 3016 3015 3015 3015 3015 3015 3015 3015 3016 3017 3017 3016 3014 3012 3011 3015 3020 3022 3023 3025 3026 3030 3029 3027 3024 3023 3021 3022 3019 3017 3013
3017 3016 3015 3013 3011 3010 3008 3007 3005 3004 3003 3004 3004 3004 3003 3003 3004 3003 3004 3004 3004 3004 3004 3002 3001 2999 3000 3004 3007 3008 3011 3015 3020 3019 3018 3016 3014 3012 3012 3011 3010 3006 3002
3005 3004 3003 3002 3000 2998 2997 2996 2994 2993 2992 2991 2991 2991 2991 2992 2992 2992 2993 2992 2992 2992 2990 2989 2987 2986 2988 2991 2994 2998 3004 3008 3009 3008 3007 3006 3005 3003 3002 3002 3001 2995 2992
2995 2994 2992 2991 2989 2987 2985 2984 2983 2982 2981 2980 2980 2979 2979 2980 2980 2980 2980 2980 2978 2979 2979 2977 2976 2977 2978 2981 2984 2991 2996 2999 2997 2997 2998 2998 2997 2995 2992 2990 2989 2985 2980
2985 2983 2982 2980 2978 2977 2975 2973 2972 2970 2969 2969 2969 2969 2969 2969 2968 2969 2969 2969 2969 2968 2968 2967 2967 2968 2969 2972 2979 2983 2986 2987 2986 2987 2988 2990 2989 2987 2983 2980 2977 2973 2970
2975 2973 2972 2971 2969 2968 2965 2964 2962 2961 2959 2958 2957 2957 2958 2958 2958 2957 2958 2958 2958 2957 2957 2957 2957 2959 2962 2967 2970 2975 2976 2976 2976 2977 2979 2980 2979 2976 2974 2971 2968 2965 2961
2965 2963 2961 2960 2959 2957 2954 2952 2950 2949 2948 2948 2947 2946 2947 2946 2946 2946 2946 2946 2947 2947 2946 2947 2948 2952 2957 2960 2964 2966 2967 2968 2968 2968 2970 2969 2968 2965 2962 2959 2956 2954 2949
2954 2954 2951 2950 2948 2946 2943 2941 2939 2939 2939 2937 2937 2936 2936 2936 2936 2935 2937 2936 2936 2938 2940 2941 2944 2947 2951 2955 2957 2960 2961 2961 2961 2960 2959 2958 2957 2954 2952 2949 2945 2941 2938
2944 2943 2941 2939 2936 2936 2934 2932 2929 2929 2928 2928 2928 2928 2929 2928 2928 2928 2930 2932 2932 2933 2937 2939 2943 2945 2947 2949 2952 2955 2956 2954 2953 2952 2950 2948 2946 2944 2941 2938 2934 2930 2927
2935 2932 2932 2929 2928 2927 2926 2926 2922 2921 2922 2922 2922 2922 2926 2927 2926 2927 2929 2931 2933 2935 2937 2940 2940 2942 2944 2946 2946 2946 2948 2946 2944 2943 2941 2938 2935 2932 2929 2927 2924 2920 2916
2925 2922 2923 2921 2920 2921 2921 2921 2917 2918 2919 2921 2920 2920 2924 2925 2925 2926 2929 2930 2932 2933 2934 2935 2936 2937 2937 2937 2938 2938 2938 2937 2936 2933 2931 2928 2925 2921 2918 2915 2912 2909 2906
2917 2916 2914 2912 2914 2915 2913 2912 2914 2914 2918 2919 2918 2919 2920 2922 2923 2925 2927 2927 2927 2927 2929 2929 2930 2930 2929 2930 2929 2928 2928 2927 2924 2921 2918 2916 2913 2909 2906 2903 2900 2897 2895
2910 2907 2906 2907 2909 2909 2909 2908 2912 2914 2916 2917 2917 2917 2918 2920 2921 2921 2922 2922 2922 2922 2923 2923 2923 2923 2921 2920 2919 2918 2917 2914 2912 2909 2906 2903 2900 2897 2894 2890 2887 2885 2883
2901 2901 2903 2904 2905 2906 2906 2908 2910 2912 2914 2915 2916 2917 2915 2915 2916 2916 2917 2917 2916 2916 2916 2916 2915 2914 2913 2911 2909 2907 2905 2902 2899 2895 2892 2889 2886 2883 2880 2877 2875 2873 2871
2897 2899 2901 2902 2903 2904 2905 2907 2908 2909 2911 2912 2913 2914 2912 2910 2911 2911 2910 2910 2910 2910 2909 2908 2906 2904 2902 2899 2897 2894 2891 2888 2884 2880 2877 2874 2872 2870 2868 2866 2864 2862 2860
2896 2897 2898 2900 2901 2901 2903 2905 2905 2906 2907 2907 2908 2908 2907 2906 2905 2904 2903 2903 2902 2900 2899 2897 2895 2892 2888 2885 2882 2879 2876 2872 2869 2865 2863 2860 2858 2857 2855 2853 2851 2850 2849
2893 2893 2894 2896 2898 2899 2900 2900 2900 2901 2902 2902 2902 2902 2900 2899 2898 2897 2895 2894 2892 2889 2886 2883 2881 2877 2873 2870 2866 2862 2860 2856 2853 2850 2848 2846 2844 2843 2842 2841 2840 2839 2838
2889 2890 2892 2893 2894 2895 2895 2894 2895 2895 2896 2896 2895 2893 2892 2890 2888 2886 2884 2881 2879 2875 2872 2868 2865 2861 2857 2853 2850 2847 2844 2841 2839 2837 2835 2834 2832 2831 2830 2829 2828 2828 2828
2886 2888 2888 2889 2889 2890 2890 2889 2889 2888 2888 2887 2886 2884 2881 2878 2876 2873 2871 2867 2864 2860 2856 2852 2848 2844 2841 2838 2835 2832 2829 2826 2825 2824 2822 2821 2820 2819 2819 2818 2818 2817 2818
2883 2884 2884 2884 2884 2885 2883 2883 2881 2879 2878 2876 2874 2872 2869 2866 2863 2859 2855 2852 2848 2844 2840 2836 2832 2828 2825 2822 2819 2817 2815 2813 2812 2811 2810 2808 2808 2807 2807 2807 2806 2807 2808